Voltar ao catálogo

THORAD DELTA 1 DEB

AtivoLEO
NORAD 8178·DEBRIS·🇺🇸 United States

Lançado Nov 15, 1974 de Vandenberg Space Force Base

Loading…

Próximas Passagens (próximas 24 horas)

TLE

AtualizadoSource: Space-Track

Época: Sep 14, 2026, 03:17 UTC

1 08178U 74089AU  26257.13701051  .00001769  00000-0  10052-1 0  9994
2 08178 102.3342 330.5497 0203908 196.1106 193.5549 12.57162672337095

Acompanhe THORAD DELTA 1 DEB em tempo real com AllMySat

Download on the App Store